Year,Month,Day,Hour,Minute,Value (Times are PST for temperature in C)
2015,05,27,00,00,13.70
2015,05,27,00,01,13.60
2015,05,27,00,02,13.60
2015,05,27,00,03,13.60
2015,05,27,00,04,13.60
2015,05,27,00,05,13.60
2015,05,27,00,06,13.60
2015,05,27,00,07,13.60
2015,05,27,00,08,13.60
2015,05,27,00,09,13.60
2015,05,27,00,10,13.60
2015,05,27,00,11,13.60
2015,05,27,00,12,13.60
2015,05,27,00,13,13.60
2015,05,27,00,14,13.60
2015,05,27,00,15,13.60
2015,05,27,00,16,13.60
2015,05,27,00,17,13.60
2015,05,27,00,18,13.60
2015,05,27,00,19,13.70
2015,05,27,00,20,13.70
2015,05,27,00,21,13.70
2015,05,27,00,22,13.70
2015,05,27,00,23,13.70
2015,05,27,00,24,13.70
2015,05,27,00,25,13.70
2015,05,27,00,26,13.80
2015,05,27,00,27,13.80
2015,05,27,00,28,13.80
2015,05,27,00,29,13.80
2015,05,27,00,30,13.80
2015,05,27,00,31,13.80
2015,05,27,00,32,13.90
2015,05,27,00,33,13.90
2015,05,27,00,34,13.90
2015,05,27,00,35,13.90
2015,05,27,00,36,13.90
2015,05,27,00,37,13.90
2015,05,27,00,38,13.90
2015,05,27,00,39,13.90
2015,05,27,00,40,13.90
2015,05,27,00,41,13.90
2015,05,27,00,42,13.90
2015,05,27,00,43,13.90
2015,05,27,00,44,13.90
2015,05,27,00,45,13.90
2015,05,27,00,46,13.90
2015,05,27,00,47,13.90
2015,05,27,00,48,13.90
2015,05,27,00,49,13.90
2015,05,27,00,50,13.90
2015,05,27,00,51,13.90
2015,05,27,00,52,13.90
2015,05,27,00,53,13.90
2015,05,27,00,54,13.90
2015,05,27,00,55,13.90
2015,05,27,00,56,13.90
2015,05,27,00,57,13.90
2015,05,27,00,58,13.90
2015,05,27,00,59,13.90
2015,05,27,01,00,13.90
2015,05,27,01,01,13.90
2015,05,27,01,02,13.90
2015,05,27,01,03,13.90
2015,05,27,01,04,13.90
2015,05,27,01,05,13.90
2015,05,27,01,06,13.90
2015,05,27,01,07,13.90
2015,05,27,01,08,13.90
2015,05,27,01,09,13.90
2015,05,27,01,10,13.90
2015,05,27,01,11,13.90
2015,05,27,01,12,13.90
2015,05,27,01,13,13.90
2015,05,27,01,14,13.90
2015,05,27,01,15,13.90
2015,05,27,01,16,13.90
2015,05,27,01,17,13.90
2015,05,27,01,18,13.90
2015,05,27,01,19,13.90
2015,05,27,01,20,13.90
2015,05,27,01,21,13.90
2015,05,27,01,22,13.90
2015,05,27,01,23,13.90
2015,05,27,01,24,13.90
2015,05,27,01,25,13.90
2015,05,27,01,26,13.90
2015,05,27,01,27,13.90
2015,05,27,01,28,13.90
2015,05,27,01,29,13.90
2015,05,27,01,30,13.90
2015,05,27,01,31,13.90
2015,05,27,01,32,13.90
2015,05,27,01,33,13.90
2015,05,27,01,34,13.90
2015,05,27,01,35,13.90
2015,05,27,01,36,13.90
2015,05,27,01,37,13.90
2015,05,27,01,38,13.90
2015,05,27,01,39,13.90
2015,05,27,01,40,13.90
2015,05,27,01,41,13.90
2015,05,27,01,42,13.90
2015,05,27,01,43,13.90
2015,05,27,01,44,13.90
2015,05,27,01,45,13.90
2015,05,27,01,46,13.90
2015,05,27,01,47,13.90
2015,05,27,01,48,13.80
2015,05,27,01,49,13.90
2015,05,27,01,50,13.80
2015,05,27,01,51,13.80
2015,05,27,01,52,13.80
2015,05,27,01,53,13.80
2015,05,27,01,54,13.80
2015,05,27,01,55,13.80
2015,05,27,01,56,13.80
2015,05,27,01,57,13.80
2015,05,27,01,58,13.80
2015,05,27,01,59,13.80
2015,05,27,02,00,13.80
2015,05,27,02,01,13.80
2015,05,27,02,02,13.80
2015,05,27,02,03,13.80
2015,05,27,02,04,13.80
2015,05,27,02,05,13.80
2015,05,27,02,06,13.70
2015,05,27,02,07,13.70
2015,05,27,02,08,13.70
2015,05,27,02,09,13.70
2015,05,27,02,10,13.70
2015,05,27,02,11,13.70
2015,05,27,02,12,13.70
2015,05,27,02,13,13.70
2015,05,27,02,14,13.70
2015,05,27,02,15,13.70
2015,05,27,02,16,13.70
2015,05,27,02,17,13.60
2015,05,27,02,18,13.60
2015,05,27,02,19,13.60
2015,05,27,02,20,13.60
2015,05,27,02,21,13.50
2015,05,27,02,22,13.50
2015,05,27,02,23,13.50
2015,05,27,02,24,13.40
2015,05,27,02,25,13.40
2015,05,27,02,26,13.40
2015,05,27,02,27,13.40
2015,05,27,02,28,13.30
2015,05,27,02,29,13.30
2015,05,27,02,30,13.30
2015,05,27,02,31,13.30
2015,05,27,02,32,13.30
2015,05,27,02,33,13.30
2015,05,27,02,34,13.20
2015,05,27,02,35,13.20
2015,05,27,02,36,13.20
2015,05,27,02,37,13.20
2015,05,27,02,38,13.20
2015,05,27,02,39,13.20
2015,05,27,02,40,13.20
2015,05,27,02,41,13.20
2015,05,27,02,42,13.20
2015,05,27,02,43,13.20
2015,05,27,02,44,13.10
2015,05,27,02,45,13.10
2015,05,27,02,46,13.10
2015,05,27,02,47,13.10
2015,05,27,02,48,13.10
2015,05,27,02,49,13.10
2015,05,27,02,50,13.10
2015,05,27,02,51,13.00
2015,05,27,02,52,13.00
2015,05,27,02,53,13.00
2015,05,27,02,54,13.00
2015,05,27,02,55,13.00
2015,05,27,02,56,12.90
2015,05,27,02,57,12.90
2015,05,27,02,58,12.90
2015,05,27,02,59,12.90
2015,05,27,03,00,12.90
2015,05,27,03,01,12.90
2015,05,27,03,02,12.90
2015,05,27,03,03,12.90
2015,05,27,03,04,12.90
2015,05,27,03,05,12.80
2015,05,27,03,06,12.80
2015,05,27,03,07,12.80
2015,05,27,03,08,12.80
2015,05,27,03,09,12.80
2015,05,27,03,10,12.80
2015,05,27,03,11,12.80
2015,05,27,03,12,12.70
2015,05,27,03,13,12.70
2015,05,27,03,14,12.70
2015,05,27,03,15,12.70
2015,05,27,03,16,12.70
2015,05,27,03,17,12.70
2015,05,27,03,18,12.70
2015,05,27,03,19,12.60
2015,05,27,03,20,12.60
2015,05,27,03,21,12.60
2015,05,27,03,22,12.60
2015,05,27,03,23,12.60
2015,05,27,03,24,12.60
2015,05,27,03,25,12.60
2015,05,27,03,26,12.50
2015,05,27,03,27,12.50
2015,05,27,03,28,12.50
2015,05,27,03,29,12.50
2015,05,27,03,30,12.40
2015,05,27,03,31,12.40
2015,05,27,03,32,12.40
2015,05,27,03,33,12.40
2015,05,27,03,34,12.40
2015,05,27,03,35,12.40
2015,05,27,03,36,12.40
2015,05,27,03,37,12.30
2015,05,27,03,38,12.30
2015,05,27,03,39,12.30
2015,05,27,03,40,12.30
2015,05,27,03,41,12.30
2015,05,27,03,42,12.30
2015,05,27,03,43,12.30
2015,05,27,03,44,12.20
2015,05,27,03,45,12.20
2015,05,27,03,46,12.20
2015,05,27,03,47,12.20
2015,05,27,03,48,12.20
2015,05,27,03,49,12.10
2015,05,27,03,50,12.10
2015,05,27,03,51,12.10
2015,05,27,03,52,12.10
2015,05,27,03,53,12.10
2015,05,27,03,54,12.10
2015,05,27,03,55,12.10
2015,05,27,03,56,12.10
2015,05,27,03,57,12.10
2015,05,27,03,58,12.10
2015,05,27,03,59,12.10
2015,05,27,04,00,12.10
2015,05,27,04,01,12.10
2015,05,27,04,02,12.00
2015,05,27,04,03,12.00
2015,05,27,04,04,12.00
2015,05,27,04,05,12.00
2015,05,27,04,06,11.90
2015,05,27,04,07,11.90
2015,05,27,04,08,11.90
2015,05,27,04,09,11.90
2015,05,27,04,10,11.90
2015,05,27,04,11,11.90
2015,05,27,04,12,11.90
2015,05,27,04,13,11.90
2015,05,27,04,14,11.90
2015,05,27,04,15,11.90
2015,05,27,04,16,11.90
2015,05,27,04,17,11.90
2015,05,27,04,18,11.90
2015,05,27,04,19,11.80
2015,05,27,04,20,11.80
2015,05,27,04,21,11.80
2015,05,27,04,22,11.80
2015,05,27,04,23,11.80
2015,05,27,04,24,11.80
2015,05,27,04,25,11.80
2015,05,27,04,26,11.80
2015,05,27,04,27,11.80
2015,05,27,04,28,11.80
2015,05,27,04,29,11.80
2015,05,27,04,30,11.70
2015,05,27,04,31,11.70
2015,05,27,04,32,11.70
2015,05,27,04,33,11.70
2015,05,27,04,34,11.70
2015,05,27,04,35,11.70
2015,05,27,04,36,11.70
2015,05,27,04,37,11.60
2015,05,27,04,38,11.60
2015,05,27,04,39,11.60
2015,05,27,04,40,11.60
2015,05,27,04,41,11.60
2015,05,27,04,42,11.60
2015,05,27,04,43,11.60
2015,05,27,04,44,11.50
2015,05,27,04,45,11.50
2015,05,27,04,46,11.50
2015,05,27,04,47,11.50
2015,05,27,04,48,11.40
2015,05,27,04,49,11.40
2015,05,27,04,50,11.40
2015,05,27,04,51,11.40
2015,05,27,04,52,11.30
2015,05,27,04,53,11.30
2015,05,27,04,54,11.30
2015,05,27,04,55,11.20
2015,05,27,04,56,11.20
2015,05,27,04,57,11.20
2015,05,27,04,58,11.20
2015,05,27,04,59,11.10
2015,05,27,05,00,11.10
2015,05,27,05,01,11.10
2015,05,27,05,02,11.00
2015,05,27,05,03,11.00
2015,05,27,05,04,10.90
2015,05,27,05,05,10.90
2015,05,27,05,06,10.90
2015,05,27,05,07,10.90
2015,05,27,05,08,10.90
2015,05,27,05,09,10.80
2015,05,27,05,10,10.80
2015,05,27,05,11,10.80
2015,05,27,05,12,10.80
2015,05,27,05,13,10.80
2015,05,27,05,14,10.80
2015,05,27,05,15,10.80
2015,05,27,05,16,10.70
2015,05,27,05,17,10.70
2015,05,27,05,18,10.70
2015,05,27,05,19,10.70
2015,05,27,05,20,10.70
2015,05,27,05,21,10.70
2015,05,27,05,22,10.70
2015,05,27,05,23,10.60
2015,05,27,05,24,10.60
2015,05,27,05,25,10.60
2015,05,27,05,26,10.60
2015,05,27,05,27,10.60
2015,05,27,05,28,10.60
2015,05,27,05,29,10.60
2015,05,27,05,30,10.50
2015,05,27,05,31,10.50
2015,05,27,05,32,10.50
2015,05,27,05,33,10.50
2015,05,27,05,34,10.50
2015,05,27,05,35,10.50
2015,05,27,05,36,10.40
2015,05,27,05,37,10.40
2015,05,27,05,38,10.40
2015,05,27,05,39,10.40
2015,05,27,05,40,10.40
2015,05,27,05,41,10.40
2015,05,27,05,42,10.40
2015,05,27,05,43,10.40
2015,05,27,05,44,10.40
2015,05,27,05,45,10.40
2015,05,27,05,46,10.40
2015,05,27,05,47,10.40
2015,05,27,05,48,10.40
2015,05,27,05,49,10.40
2015,05,27,05,50,10.40
2015,05,27,05,51,10.40
2015,05,27,05,52,10.40
2015,05,27,05,53,10.40
2015,05,27,05,54,10.40
2015,05,27,05,55,10.40
2015,05,27,05,56,10.40
2015,05,27,05,57,10.40
2015,05,27,05,58,10.40
2015,05,27,05,59,10.40
2015,05,27,06,00,10.40
2015,05,27,06,01,10.40
2015,05,27,06,02,10.40
2015,05,27,06,03,10.40
2015,05,27,06,04,10.40
2015,05,27,06,05,10.40
2015,05,27,06,06,10.40
2015,05,27,06,07,10.40
2015,05,27,06,08,10.40
2015,05,27,06,09,10.40
2015,05,27,06,10,10.40
2015,05,27,06,11,10.40
2015,05,27,06,12,10.40
2015,05,27,06,13,10.40
2015,05,27,06,14,10.40
2015,05,27,06,15,10.40
2015,05,27,06,16,10.40
2015,05,27,06,17,10.40
2015,05,27,06,18,10.50
2015,05,27,06,19,10.50
2015,05,27,06,20,10.50
2015,05,27,06,21,10.50
2015,05,27,06,22,10.50
2015,05,27,06,23,10.50
2015,05,27,06,24,10.50
2015,05,27,06,25,10.50
2015,05,27,06,26,10.60
2015,05,27,06,27,10.60
2015,05,27,06,28,10.60
2015,05,27,06,29,10.60
2015,05,27,06,30,10.70
2015,05,27,06,31,10.70
2015,05,27,06,32,10.70
2015,05,27,06,33,10.70
2015,05,27,06,34,10.80
2015,05,27,06,35,10.80
2015,05,27,06,36,10.80
2015,05,27,06,37,10.80
2015,05,27,06,38,10.80
2015,05,27,06,39,10.80
2015,05,27,06,40,10.80
2015,05,27,06,41,10.90
2015,05,27,06,42,10.90
2015,05,27,06,43,10.90
2015,05,27,06,44,10.90
2015,05,27,06,45,10.90
2015,05,27,06,46,10.90
2015,05,27,06,47,11.00
2015,05,27,06,48,11.00
2015,05,27,06,49,11.00
2015,05,27,06,50,11.10
2015,05,27,06,51,11.10
2015,05,27,06,52,11.10
2015,05,27,06,53,11.20
2015,05,27,06,54,11.20
2015,05,27,06,55,11.20
2015,05,27,06,56,11.20
2015,05,27,06,57,11.30
2015,05,27,06,58,11.30
2015,05,27,06,59,11.30
2015,05,27,07,00,11.40
2015,05,27,07,01,11.40
2015,05,27,07,02,11.40
2015,05,27,07,03,11.50
2015,05,27,07,04,11.50
2015,05,27,07,05,11.50
2015,05,27,07,06,11.60
2015,05,27,07,07,11.60
2015,05,27,07,08,11.60
2015,05,27,07,09,11.70
2015,05,27,07,10,11.70
2015,05,27,07,11,11.70
2015,05,27,07,12,11.80
2015,05,27,07,13,11.80
2015,05,27,07,14,11.80
2015,05,27,07,15,11.80
2015,05,27,07,16,11.90
2015,05,27,07,17,11.90
2015,05,27,07,18,11.90
2015,05,27,07,19,12.00
2015,05,27,07,20,12.00
2015,05,27,07,21,12.10
2015,05,27,07,22,12.10
2015,05,27,07,23,12.20
2015,05,27,07,24,12.20
2015,05,27,07,25,12.20
2015,05,27,07,26,12.30
2015,05,27,07,27,12.30
2015,05,27,07,28,12.30
2015,05,27,07,29,12.30
2015,05,27,07,30,12.40
2015,05,27,07,31,12.40
2015,05,27,07,32,12.40
2015,05,27,07,33,12.40
2015,05,27,07,34,12.50
2015,05,27,07,35,12.50
2015,05,27,07,36,12.50
2015,05,27,07,37,12.60
2015,05,27,07,38,12.60
2015,05,27,07,39,12.60
2015,05,27,07,40,12.60
2015,05,27,07,41,12.60
2015,05,27,07,42,12.70
2015,05,27,07,43,12.70
2015,05,27,07,44,12.70
2015,05,27,07,45,12.70
2015,05,27,07,46,12.80
2015,05,27,07,47,12.80
2015,05,27,07,48,12.80
2015,05,27,07,49,12.90
2015,05,27,07,50,12.90
2015,05,27,07,51,12.90
2015,05,27,07,52,12.90
2015,05,27,07,53,13.00
2015,05,27,07,54,13.00
2015,05,27,07,55,13.00
2015,05,27,07,56,13.10
2015,05,27,07,57,13.10
2015,05,27,07,58,13.10
2015,05,27,07,59,13.20
2015,05,27,08,00,13.20
2015,05,27,08,01,13.30
2015,05,27,08,02,13.30
2015,05,27,08,03,13.30
2015,05,27,08,04,13.40
2015,05,27,08,05,13.40
2015,05,27,08,06,13.40
2015,05,27,08,07,13.50
2015,05,27,08,08,13.50
2015,05,27,08,09,13.50
2015,05,27,08,10,13.60
2015,05,27,08,11,13.60
2015,05,27,08,12,13.70
2015,05,27,08,13,13.70
2015,05,27,08,14,13.70
2015,05,27,08,15,13.80
2015,05,27,08,16,13.80
2015,05,27,08,17,13.80
2015,05,27,08,18,13.90
2015,05,27,08,19,13.90
2015,05,27,08,20,13.90
2015,05,27,08,21,13.90
2015,05,27,08,22,13.90
2015,05,27,08,23,13.90
2015,05,27,08,24,14.00
2015,05,27,08,25,14.00
2015,05,27,08,26,14.10
2015,05,27,08,27,14.10
2015,05,27,08,28,14.10
2015,05,27,08,29,14.10
2015,05,27,08,30,14.20
2015,05,27,08,31,14.10
2015,05,27,08,32,14.10
2015,05,27,08,33,14.10
2015,05,27,08,34,14.10
2015,05,27,08,35,14.10
2015,05,27,08,36,14.10
2015,05,27,08,37,14.10
2015,05,27,08,38,14.10
2015,05,27,08,39,14.10
2015,05,27,08,40,14.10
2015,05,27,08,41,14.10
2015,05,27,08,42,14.10
2015,05,27,08,43,14.10
2015,05,27,08,44,14.20
2015,05,27,08,45,14.20
2015,05,27,08,46,14.20
2015,05,27,08,47,14.20
2015,05,27,08,48,14.20
2015,05,27,08,49,14.30
2015,05,27,08,50,14.30
2015,05,27,08,51,14.30
2015,05,27,08,52,14.40
2015,05,27,08,53,14.40
2015,05,27,08,54,14.50
2015,05,27,08,55,14.50
2015,05,27,08,56,14.60
2015,05,27,08,57,14.70
2015,05,27,08,58,14.80
2015,05,27,08,59,14.80
2015,05,27,09,00,14.90
2015,05,27,09,01,15.00
2015,05,27,09,02,15.10
2015,05,27,09,03,15.20
2015,05,27,09,04,15.30
2015,05,27,09,05,15.30
2015,05,27,09,06,15.40
2015,05,27,09,07,15.50
2015,05,27,09,08,15.60
2015,05,27,09,09,15.60
2015,05,27,09,10,15.70
2015,05,27,09,11,15.70
2015,05,27,09,12,15.70
2015,05,27,09,13,15.80
2015,05,27,09,14,15.80
2015,05,27,09,15,15.90
2015,05,27,09,16,16.00
2015,05,27,09,17,16.00
2015,05,27,09,18,16.10
2015,05,27,09,19,16.20
2015,05,27,09,20,16.30
2015,05,27,09,21,16.40
2015,05,27,09,22,16.50
2015,05,27,09,23,16.60
2015,05,27,09,24,16.70
2015,05,27,09,25,16.70
2015,05,27,09,26,16.80
2015,05,27,09,27,16.90
2015,05,27,09,28,16.90
2015,05,27,09,29,17.00
2015,05,27,09,30,17.10
2015,05,27,09,31,17.20
2015,05,27,09,32,17.20
2015,05,27,09,33,17.30
2015,05,27,09,34,17.30
2015,05,27,09,35,17.40
2015,05,27,09,36,17.40
2015,05,27,09,37,17.50
2015,05,27,09,38,17.60
2015,05,27,09,39,17.60
2015,05,27,09,40,17.60
2015,05,27,09,41,17.60
2015,05,27,09,42,17.60
2015,05,27,09,43,17.60
2015,05,27,09,44,17.60
2015,05,27,09,45,17.60
2015,05,27,09,46,17.60
2015,05,27,09,47,17.60
2015,05,27,09,48,17.60
2015,05,27,09,49,17.60
2015,05,27,09,50,17.70
2015,05,27,09,51,17.70
2015,05,27,09,52,17.70
2015,05,27,09,53,17.80
2015,05,27,09,54,17.80
2015,05,27,09,55,17.80
2015,05,27,09,56,17.80
2015,05,27,09,57,17.80
2015,05,27,09,58,17.70
2015,05,27,09,59,17.80
2015,05,27,10,00,17.80
2015,05,27,10,01,17.80
2015,05,27,10,02,17.90
2015,05,27,10,03,17.90
2015,05,27,10,04,17.90
2015,05,27,10,05,17.90
2015,05,27,10,06,17.90
2015,05,27,10,07,18.00
2015,05,27,10,08,17.90
2015,05,27,10,09,17.80
2015,05,27,10,10,17.80
2015,05,27,10,11,17.80
2015,05,27,10,12,17.80
2015,05,27,10,13,17.80
2015,05,27,10,14,17.80
2015,05,27,10,15,17.80
2015,05,27,10,16,17.70
2015,05,27,10,17,17.70
2015,05,27,10,18,17.70
2015,05,27,10,19,17.70
2015,05,27,10,20,17.70
2015,05,27,10,21,17.70
2015,05,27,10,22,17.70
2015,05,27,10,23,17.70
2015,05,27,10,24,17.60
2015,05,27,10,25,17.60
2015,05,27,10,26,17.60
2015,05,27,10,27,17.70
2015,05,27,10,28,17.60
2015,05,27,10,29,17.60
2015,05,27,10,30,17.60
2015,05,27,10,31,17.60
2015,05,27,10,32,17.70
2015,05,27,10,33,17.70
2015,05,27,10,34,17.70
2015,05,27,10,35,17.70
2015,05,27,10,36,17.60
2015,05,27,10,37,17.60
2015,05,27,10,38,17.70
2015,05,27,10,39,17.70
2015,05,27,10,40,17.60
2015,05,27,10,41,17.60
2015,05,27,10,42,17.60
2015,05,27,10,43,17.60
2015,05,27,10,44,17.60
2015,05,27,10,45,17.60
2015,05,27,10,46,17.60
2015,05,27,10,47,17.70
2015,05,27,10,48,17.70
2015,05,27,10,49,17.70
2015,05,27,10,50,17.70
2015,05,27,10,51,17.70
2015,05,27,10,52,17.70
2015,05,27,10,53,17.80
2015,05,27,10,54,17.90
2015,05,27,10,55,17.90
2015,05,27,10,56,17.90
2015,05,27,10,57,17.90
2015,05,27,10,58,17.90
2015,05,27,10,59,18.00
2015,05,27,11,00,18.00
2015,05,27,11,01,18.10
2015,05,27,11,02,18.10
2015,05,27,11,03,18.10
2015,05,27,11,04,18.10
2015,05,27,11,05,18.10
2015,05,27,11,06,18.20
2015,05,27,11,07,18.20
2015,05,27,11,08,18.20
2015,05,27,11,09,18.20
2015,05,27,11,10,18.20
2015,05,27,11,11,18.20
2015,05,27,11,12,18.20
2015,05,27,11,13,18.20
2015,05,27,11,14,18.10
2015,05,27,11,15,18.00
2015,05,27,11,16,17.90
2015,05,27,11,17,17.80
2015,05,27,11,18,17.80
2015,05,27,11,19,17.80
2015,05,27,11,20,17.90
2015,05,27,11,21,17.90
2015,05,27,11,22,18.00
2015,05,27,11,23,18.00
2015,05,27,11,24,18.00
2015,05,27,11,25,18.00
2015,05,27,11,26,18.00
2015,05,27,11,27,18.10
2015,05,27,11,28,18.20
2015,05,27,11,29,18.30
2015,05,27,11,30,18.40
2015,05,27,11,31,18.40
2015,05,27,11,32,18.40
2015,05,27,11,33,18.40
2015,05,27,11,34,18.40
2015,05,27,11,35,18.40
2015,05,27,11,36,18.30
2015,05,27,11,37,18.20
2015,05,27,11,38,18.20
2015,05,27,11,39,18.20
2015,05,27,11,40,18.10
2015,05,27,11,41,18.10
2015,05,27,11,42,18.10
2015,05,27,11,43,18.10
2015,05,27,11,44,18.20
2015,05,27,11,45,18.10
2015,05,27,11,46,18.10
2015,05,27,11,47,18.10
2015,05,27,11,48,18.10
2015,05,27,11,49,18.10
2015,05,27,11,50,18.10
2015,05,27,11,51,18.10
2015,05,27,11,52,18.20
2015,05,27,11,53,18.20
2015,05,27,11,54,18.20
2015,05,27,11,55,18.20
2015,05,27,11,56,18.20
2015,05,27,11,57,18.30
2015,05,27,11,58,18.30
2015,05,27,11,59,18.30
2015,05,27,12,00,18.30
2015,05,27,12,01,18.30
2015,05,27,12,02,18.30
2015,05,27,12,03,18.40
2015,05,27,12,04,18.40
2015,05,27,12,05,18.50
2015,05,27,12,06,18.40
2015,05,27,12,07,18.40
2015,05,27,12,08,18.40
2015,05,27,12,09,18.40
2015,05,27,12,10,18.40
2015,05,27,12,11,18.50
2015,05,27,12,12,18.50
2015,05,27,12,13,18.50
2015,05,27,12,14,18.50
2015,05,27,12,15,18.50
2015,05,27,12,16,18.50
2015,05,27,12,17,18.50
2015,05,27,12,18,18.40
2015,05,27,12,19,18.40
2015,05,27,12,20,18.40
2015,05,27,12,21,18.40
2015,05,27,12,22,18.50
2015,05,27,12,23,18.60
2015,05,27,12,24,18.70
2015,05,27,12,25,18.80
2015,05,27,12,26,18.90
2015,05,27,12,27,19.00
2015,05,27,12,28,19.10
2015,05,27,12,29,19.10
2015,05,27,12,30,19.10
2015,05,27,12,31,19.20
2015,05,27,12,32,19.20
2015,05,27,12,33,19.20
2015,05,27,12,34,19.30
2015,05,27,12,35,19.30
2015,05,27,12,36,19.30
2015,05,27,12,37,19.30
2015,05,27,12,38,19.40
2015,05,27,12,39,19.40
2015,05,27,12,40,19.40
2015,05,27,12,41,19.40
2015,05,27,12,42,19.40
2015,05,27,12,43,19.40
2015,05,27,12,44,19.40
2015,05,27,12,45,19.40
2015,05,27,12,46,19.40
2015,05,27,12,47,19.40
2015,05,27,12,48,19.40
2015,05,27,12,49,19.40
2015,05,27,12,50,19.30
2015,05,27,12,51,19.20
2015,05,27,12,52,19.20
2015,05,27,12,53,19.10
2015,05,27,12,54,19.10
2015,05,27,12,55,19.20
2015,05,27,12,56,19.20
2015,05,27,12,57,19.30
2015,05,27,12,58,19.30
2015,05,27,12,59,19.40
2015,05,27,13,00,19.40
2015,05,27,13,01,19.50
2015,05,27,13,02,19.60
2015,05,27,13,03,19.70
2015,05,27,13,04,19.80
2015,05,27,13,05,19.80
2015,05,27,13,06,19.90
2015,05,27,13,07,20.00
2015,05,27,13,08,20.00
2015,05,27,13,09,20.10
2015,05,27,13,10,20.20
2015,05,27,13,11,20.20
2015,05,27,13,12,20.30
2015,05,27,13,13,20.30
2015,05,27,13,14,20.30
2015,05,27,13,15,20.30
2015,05,27,13,16,20.30
2015,05,27,13,17,20.30
2015,05,27,13,18,20.40
2015,05,27,13,19,20.40
2015,05,27,13,20,20.30
2015,05,27,13,21,20.30
2015,05,27,13,22,20.30
2015,05,27,13,23,20.30
2015,05,27,13,24,20.30
2015,05,27,13,25,20.30
2015,05,27,13,26,20.30
2015,05,27,13,27,20.30
2015,05,27,13,28,20.30
2015,05,27,13,29,20.40
2015,05,27,13,30,20.40
2015,05,27,13,31,20.50
2015,05,27,13,32,20.50
2015,05,27,13,33,20.50
2015,05,27,13,34,20.40
2015,05,27,13,35,20.30
2015,05,27,13,36,20.20
2015,05,27,13,37,20.00
2015,05,27,13,38,19.90
2015,05,27,13,39,19.80
2015,05,27,13,40,19.80
2015,05,27,13,41,19.80
2015,05,27,13,42,19.80
2015,05,27,13,43,19.80
2015,05,27,13,44,19.80
2015,05,27,13,45,19.80
2015,05,27,13,46,19.80
2015,05,27,13,47,19.80
2015,05,27,13,48,19.80
2015,05,27,13,49,19.80
2015,05,27,13,50,19.70
2015,05,27,13,51,19.60
2015,05,27,13,52,19.60
2015,05,27,13,53,19.50
2015,05,27,13,54,19.50
2015,05,27,13,55,19.50
2015,05,27,13,56,19.50
2015,05,27,13,57,19.50
2015,05,27,13,58,19.40
2015,05,27,13,59,19.40
2015,05,27,14,00,19.40
2015,05,27,14,01,19.30
2015,05,27,14,02,19.30
2015,05,27,14,03,19.20
2015,05,27,14,04,19.10
2015,05,27,14,05,19.00
2015,05,27,14,06,18.90
2015,05,27,14,07,18.90
2015,05,27,14,08,18.80
2015,05,27,14,09,18.80
2015,05,27,14,10,18.80
2015,05,27,14,11,18.80
2015,05,27,14,12,18.80
2015,05,27,14,13,18.80
2015,05,27,14,14,18.80
2015,05,27,14,15,18.80
2015,05,27,14,16,18.70
2015,05,27,14,17,18.70
2015,05,27,14,18,18.70
2015,05,27,14,19,18.70
2015,05,27,14,20,18.70
2015,05,27,14,21,18.70
2015,05,27,14,22,18.70
2015,05,27,14,23,18.70
2015,05,27,14,24,18.60
2015,05,27,14,25,18.60
2015,05,27,14,26,18.60
2015,05,27,14,27,18.60
2015,05,27,14,28,18.60
2015,05,27,14,29,18.60
2015,05,27,14,30,18.60
2015,05,27,14,31,18.60
2015,05,27,14,32,18.60
2015,05,27,14,33,18.60
2015,05,27,14,34,18.60
2015,05,27,14,35,18.60
2015,05,27,14,36,18.60
2015,05,27,14,37,18.60
2015,05,27,14,38,18.60
2015,05,27,14,39,18.60
2015,05,27,14,40,18.70
2015,05,27,14,41,18.70
2015,05,27,14,42,18.80
2015,05,27,14,43,18.90
2015,05,27,14,44,19.00
2015,05,27,14,45,19.10
2015,05,27,14,46,19.20
2015,05,27,14,47,19.30
2015,05,27,14,48,19.30
2015,05,27,14,49,19.30
2015,05,27,14,50,19.30
2015,05,27,14,51,19.20
2015,05,27,14,52,19.10
2015,05,27,14,53,19.10
2015,05,27,14,54,19.00
2015,05,27,14,55,19.00
2015,05,27,14,56,19.00
2015,05,27,14,57,19.10
2015,05,27,14,58,19.10
2015,05,27,14,59,19.00
2015,05,27,15,00,19.00
2015,05,27,15,01,19.00
2015,05,27,15,02,18.90
2015,05,27,15,03,18.90
2015,05,27,15,04,18.90
2015,05,27,15,05,18.90
2015,05,27,15,06,18.80
2015,05,27,15,07,18.80
2015,05,27,15,08,18.70
2015,05,27,15,09,18.70
2015,05,27,15,10,18.60
2015,05,27,15,11,18.60
2015,05,27,15,12,18.50
2015,05,27,15,13,18.50
2015,05,27,15,14,18.40
2015,05,27,15,15,18.40
2015,05,27,15,16,18.40
2015,05,27,15,17,18.50
2015,05,27,15,18,18.50
2015,05,27,15,19,18.60
2015,05,27,15,20,18.70
2015,05,27,15,21,18.80
2015,05,27,15,22,18.90
2015,05,27,15,23,19.00
2015,05,27,15,24,19.20
2015,05,27,15,25,19.40
2015,05,27,15,26,19.60
2015,05,27,15,27,19.70
2015,05,27,15,28,19.80
2015,05,27,15,29,19.90
2015,05,27,15,30,20.00
2015,05,27,15,31,20.00
2015,05,27,15,32,20.10
2015,05,27,15,33,20.10
2015,05,27,15,34,20.00
2015,05,27,15,35,20.00
2015,05,27,15,36,20.10
2015,05,27,15,37,20.10
2015,05,27,15,38,20.10
2015,05,27,15,39,20.10
2015,05,27,15,40,20.10
2015,05,27,15,41,20.10
2015,05,27,15,42,20.10
2015,05,27,15,43,20.10
2015,05,27,15,44,20.20
2015,05,27,15,45,20.20
2015,05,27,15,46,20.30
2015,05,27,15,47,20.40
2015,05,27,15,48,20.40
2015,05,27,15,49,20.50
2015,05,27,15,50,20.60
2015,05,27,15,51,20.50
2015,05,27,15,52,20.50
2015,05,27,15,53,20.50
2015,05,27,15,54,20.40
2015,05,27,15,55,20.40
2015,05,27,15,56,20.30
2015,05,27,15,57,20.30
2015,05,27,15,58,20.20
2015,05,27,15,59,20.20
2015,05,27,16,00,20.20
2015,05,27,16,01,20.20
2015,05,27,16,02,20.20
2015,05,27,16,03,20.20
2015,05,27,16,04,20.20
2015,05,27,16,05,20.20
2015,05,27,16,06,20.30
2015,05,27,16,07,20.20
2015,05,27,16,08,20.30
2015,05,27,16,09,20.30
2015,05,27,16,10,20.30
2015,05,27,16,11,20.20
2015,05,27,16,12,20.20
2015,05,27,16,13,20.10
2015,05,27,16,14,20.00
2015,05,27,16,15,20.00
2015,05,27,16,16,20.00
2015,05,27,16,17,20.00
2015,05,27,16,18,20.10
2015,05,27,16,19,20.10
2015,05,27,16,20,20.00
2015,05,27,16,21,20.00
2015,05,27,16,22,19.90
2015,05,27,16,23,19.90
2015,05,27,16,24,19.90
2015,05,27,16,25,20.00
2015,05,27,16,26,20.00
2015,05,27,16,27,20.00
2015,05,27,16,28,20.00
2015,05,27,16,29,20.00
2015,05,27,16,30,20.00
2015,05,27,16,31,20.00
2015,05,27,16,32,20.00
2015,05,27,16,33,20.10
2015,05,27,16,34,20.10
2015,05,27,16,35,20.10
2015,05,27,16,36,20.10
2015,05,27,16,37,20.10
2015,05,27,16,38,20.10
2015,05,27,16,39,20.10
2015,05,27,16,40,20.10
2015,05,27,16,41,20.10
2015,05,27,16,42,20.10
2015,05,27,16,43,20.10
2015,05,27,16,44,20.10
2015,05,27,16,45,20.10
2015,05,27,16,46,20.10
2015,05,27,16,47,20.20
2015,05,27,16,48,20.30
2015,05,27,16,49,20.30
2015,05,27,16,50,20.40
2015,05,27,16,51,20.50
2015,05,27,16,52,20.50
2015,05,27,16,53,20.60
2015,05,27,16,54,20.60
2015,05,27,16,55,20.70
2015,05,27,16,56,20.70
2015,05,27,16,57,20.70
2015,05,27,16,58,20.70
2015,05,27,16,59,20.60
2015,05,27,17,00,20.60
2015,05,27,17,01,20.50
2015,05,27,17,02,20.60
2015,05,27,17,03,20.60
2015,05,27,17,04,20.60
2015,05,27,17,05,20.70
2015,05,27,17,06,20.70
2015,05,27,17,07,20.80
2015,05,27,17,08,20.80
2015,05,27,17,09,20.80
2015,05,27,17,10,20.80
2015,05,27,17,11,20.70
2015,05,27,17,12,20.70
2015,05,27,17,13,20.70
2015,05,27,17,14,20.70
2015,05,27,17,15,20.70
2015,05,27,17,16,20.70
2015,05,27,17,17,20.80
2015,05,27,17,18,20.80
2015,05,27,17,19,20.80